Location: Arrakis Observatory
(44.1122°N, 95.7153°W)
Time: 23:13:22
(UTC-05:00)

Iridium 35 - Visible Passes

Search period start: 21 September 2014 00:00
Search period end: 01 October 2014 00:00
Orbit: 776 x 779 km, 86.4° (Epoch: 21 September)

Date Brightness Start Highest point End Pass type
(mag) Time Alt. Az. Time Alt. Az. Time Alt. Az.
21 Sep 7.9 02:03:29 12° NNE 02:03:29 12° NNE 02:03:56 10° NNE visible
21 Sep 7.5 03:43:58 12° NNW 03:43:58 12° NNW 03:44:27 10° NNW visible
22 Sep 7.6 03:10:42 13° N 03:10:42 13° N 03:11:20 10° N visible
23 Sep 7.8 02:37:26 13° N 02:37:26 13° N 02:37:55 10° N visible
24 Sep 8.0 02:04:09 11° NNE 02:04:09 11° NNE 02:04:16 10° NNE visible
